星链-2049 (STARLINK-2049 )

导读 | 星芒AI

STARLINK-2049 是星链计划中的一颗低轨通信卫星,属于SpaceX公司构建的全球宽带互联网网络的一部分。该卫星采用先进推进和通信技术,旨在为偏远地区提供高速、低延迟的互联网服务。作为第2049号星链卫星,它于2024年发射,运行在约550公里高度的近地轨道,与其他星链卫星协同工作,增强全球网络覆盖与稳定性。

基本信息
目录编号:
47356
目录名称:
STARLINK-2049
国际标识:
2021-005H
轨道中心:
EARTH
卫星名称:
星链-2049
卫星全名:
星链-2049 (STARLINK-2049 )
卫星状态:
在轨 (已飞行1791 天)
发射日期:
2021-01-20 UTC
国别 :
美国 (US)
星等 :
--
轨道信息
数据来源 国际轨道数据
星历时间: 2025-12-16T05:45:23+0800
18小时前
查看轨道信息
半长轴: 6925.301km
偏心率: 0.0001388
轨道倾角: 53.056°
近地点辐角 91.200°
升交点赤经 47.734°
平近点角 268.915°
近地点: 546.204km
远地点: 548.128km
周期: 95.591分钟
每日圈数: 15.064156
详细信息
固有亮度:
5
最大亮度:
2.5
卫星平台:
Starlink V1.0
覆盖范围:
全球
运营商:
太空探索技术公司
运营商所在国:
美国
制造商(研发单位):
太空探索技术公司
制造商所在国:
美国
使用方式:
暂无
卫星简介
星链(Starlink)计划是由太空探索技术公司(SpaceX)提出的一个巨型低轨卫星互联网星座项目,计划在2019年至2024年间在太空搭建由约1.2万颗卫星组成的“星链”网络,其中1584颗将部署在地球上空550千米处的近地轨道,并从2020年开始工作。该卫星仍在工作。
2D轨道图
3D轨道图
轨道高度分析图
轨道倾角分析图
轨道综合分析图
查看轨道综合分析图